Willimantic, CT

12:47 AM EST on December 06, 2019 (GMT -0500)
Windham

Weather History for KIJD - October, 2019

Change the Weather History Date:

Wednesday, October 16, 2019

  Actual Average Record
Temperature  
Mean Temperature 48 °F -  
Max Temperature 63 °F 65 °F 84 °F (1956)
Min Temperature 33 °F 38 °F 23 °F (1961)
Degree Days  
Heating Degree Days 18    
Moisture  
Dew Point 43 °F    
Average Humidity 90    
Maximum Humidity 100    
Minimum Humidity 60    
Precipitation  
Precipitation 1.94 in - - ()
Sea Level Pressure  
Sea Level Pressure 29.84 in    
Wind  
Wind Speed 3 mph ()    
Max Wind Speed 17 mph    
Max Gust Speed 30 mph    
Visibility 6.6 miles    
Events Rain    
Averages and records for this station are not official NWS values.
T = Trace of Precipitation, MM = Missing Value Source: Averaged Metar Reports

Daily Weather History Graph

Daily Weather History Graph

Search for Another Location

Airport or City:

Astronomy

Oct. 16, 2019 Rise Set
Actual Time 7:01 AM EDT 6:06 PM EDT
Civil Twilight 6:33 AM EDT 6:34 PM EDT
Nautical Twilight 6:01 AM EDT 7:06 PM EDT
Astronomical Twilight 5:29 AM EDT 7:38 PM EDT
Moon 7:55 PM EDT (10/16) 9:31 AM EDT (10/16)
Length of Visible Light 12h 00m
Length of Day
11h 04m
Waning Gibbous, 93% of the Moon is Illuminated
Oct 16
Waning Gibbous
Oct 21
Last Quarter
Oct 27
New
Nov 4
First Quarter
Nov 12
Full

Hourly Weather History & Observations

Time (EDT) Temp. Windchill Dew Point Humidity Pressure Visibility Wind Dir Wind Speed Gust Speed Precip Events Conditions
12:52 AM 37.9 °F - 36.0 °F 93% 30.12 in 10.0 mi Calm Calm - N/A   Clear
1:16 AM 37.0 °F - 35.1 °F 93% 30.11 in 10.0 mi Calm Calm - N/A   Scattered Clouds
1:25 AM 37.0 °F - 35.1 °F 93% 30.11 in 10.0 mi Calm Calm - N/A   Mostly Cloudy
1:52 AM 37.0 °F - 35.1 °F 93% 30.12 in 10.0 mi Calm Calm - N/A   Mostly Cloudy
2:04 AM 37.0 °F - 35.1 °F 93% 30.13 in 10.0 mi Calm Calm - N/A   Partly Cloudy
2:52 AM 36.0 °F - 34.0 °F 93% 30.12 in 10.0 mi Calm Calm - N/A   Clear
3:00 AM 36.0 °F - 34.0 °F 93% 30.11 in 10.0 mi Calm Calm - N/A   Scattered Clouds
3:09 AM 36.0 °F - 34.0 °F 93% 30.11 in 10.0 mi Calm Calm - N/A   Mostly Cloudy
3:48 AM 35.6 °F - 33.8 °F 93% 30.09 in 10.0 mi Calm Calm - N/A   Partly Cloudy
3:52 AM 35.1 °F - 34.0 °F 96% 30.10 in 10.0 mi Calm Calm - N/A   Partly Cloudy
4:46 AM 33.8 °F - 32.0 °F 93% 30.09 in 1.5 mi Calm Calm - N/A   Partly Cloudy
4:49 AM 33.8 °F - 33.8 °F 100% 30.09 in 0.8 mi Calm Calm - N/A   Mist
4:52 AM 34.0 °F - 33.1 °F 96% 30.10 in 0.8 mi Calm Calm - N/A   Mist
4:57 AM 34.0 °F - 33.1 °F 96% 30.10 in 2.5 mi Calm Calm - N/A   Mostly Cloudy
5:04 AM 34.0 °F - 33.1 °F 96% 30.09 in 10.0 mi Calm Calm - N/A   Mostly Cloudy
5:43 AM 34.0 °F - 33.1 °F 96% 30.08 in 1.8 mi Calm Calm - N/A   Overcast
5:50 AM 33.8 °F - 33.8 °F 100% 30.08 in 3.0 mi Calm Calm - N/A   Overcast
5:52 AM 34.0 °F 31.0 °F 33.1 °F 96% 30.08 in 5.0 mi NE 3.5 mph - N/A   Overcast
7:07 AM 33.1 °F - 32.0 °F 96% 30.07 in 1.5 mi Calm Calm - N/A   Mostly Cloudy
7:17 AM 33.1 °F - 32.0 °F 96% 30.07 in 3.0 mi Calm Calm - N/A   Scattered Clouds
7:52 AM 34.0 °F - 32.0 °F 92% 30.06 in 10.0 mi Calm Calm - N/A   Scattered Clouds
8:52 AM 37.9 °F - 37.9 °F 100% 30.04 in 7.0 mi Calm Calm - N/A   Partly Cloudy
9:52 AM 48.0 °F - 42.1 °F 80% 30.00 in 10.0 mi WNW 3.5 mph - N/A   Clear
10:52 AM 57.9 °F - 46.9 °F 67% 29.98 in 10.0 mi South 12.7 mph 18.4 mph N/A   Clear
11:52 AM 60.1 °F - 48.0 °F 64% 29.94 in 10.0 mi SE 9.2 mph 19.6 mph N/A   Clear
12:52 PM 62.1 °F - 48.0 °F 60% 29.91 in 10.0 mi South 13.8 mph 20.7 mph N/A   Partly Cloudy
1:52 PM 62.1 °F - 48.9 °F 62% 29.88 in 10.0 mi SSE 11.5 mph 17.3 mph N/A   Scattered Clouds
2:52 PM 61.0 °F - 51.1 °F 70% 29.83 in 10.0 mi Variable 6.9 mph - N/A   Scattered Clouds
3:38 PM 59.0 °F - 51.1 °F 75% 29.81 in 10.0 mi Variable 6.9 mph - N/A   Mostly Cloudy
3:52 PM 59.0 °F - 51.1 °F 75% 29.82 in 10.0 mi Variable 5.8 mph - N/A   Overcast
4:52 PM 57.9 °F - 52.0 °F 81% 29.76 in 10.0 mi East 8.1 mph - N/A   Overcast
5:52 PM 57.0 °F - 53.1 °F 87% 29.69 in 10.0 mi ENE 9.2 mph - 0.01 in   Overcast
6:52 PM 55.9 °F - 53.1 °F 90% 29.65 in 9.0 mi ENE 11.5 mph - 0.02 in Rain Light Rain
7:05 PM 55.9 °F - 53.1 °F 90% 29.64 in 6.0 mi East 8.1 mph 19.6 mph 0.02 in Rain Rain
7:52 PM 55.9 °F - 53.1 °F 90% 29.58 in 7.0 mi East 12.7 mph 18.4 mph 0.11 in Rain Rain
8:52 PM 55.0 °F - 53.1 °F 93% 29.48 in 6.0 mi ENE 16.1 mph 27.6 mph 0.13 in Rain Rain
9:18 PM 55.9 °F - 54.0 °F 93% 29.45 in 3.0 mi East 15.0 mph 25.3 mph 0.13 in Rain Heavy Rain
9:52 PM 55.0 °F - 53.1 °F 93% 29.38 in 4.0 mi East 12.7 mph 26.5 mph 0.30 in Rain Heavy Rain
10:06 PM 55.0 °F - 53.1 °F 93% 29.35 in 2.5 mi ENE 16.1 mph 25.3 mph 0.09 in Rain Heavy Rain
10:16 PM 55.0 °F - 54.0 °F 96% 29.33 in 2.0 mi ENE 17.3 mph 29.9 mph 0.17 in Rain Heavy Rain
10:37 PM 55.0 °F - 54.0 °F 96% 29.31 in 2.5 mi ENE 15.0 mph 21.9 mph 0.30 in Rain Heavy Rain
10:52 PM 55.9 °F - 55.0 °F 97% 29.29 in 2.5 mi ENE 8.1 mph 19.6 mph 0.40 in Rain Heavy Rain
11:20 PM 55.9 °F - 55.0 °F 97% 29.27 in 1.2 mi East 10.4 mph - 0.39 in Rain Heavy Rain
11:28 PM 55.9 °F - 55.0 °F 97% 29.23 in 1.2 mi NE 9.2 mph - 0.57 in Rain Heavy Rain
11:52 PM 55.9 °F - 55.0 °F 97% 29.14 in 1.5 mi North 12.7 mph - 0.97 in Rain Heavy Rain